This demonstration page uses our WeatherBlox Daily Observations layout. Learn more.

Left ArrowRight Arrow

41.12389, -100.76542

Hourly Observations for November 13, 2015

Temp ( °F °C ) Dew Point ( °F °C ) Humidity (%) Winds ( mph kmh ) Pressure ( in mb ) Visibility ( mi km ) Precip ( " mm )
12:53 am 00:53 Clear 26 -3.3 20 -6.7 78 78 Calm 30.28 1026 10 16 0.00 0.00
1:53 am 01:53 Clear 24 -4.4 20 -6.7 84 84 Calm 30.27 1025 10 16 0.00 0.00
2:53 am 02:53 Clear 23 -5 19 -7.2 85 85 Calm 30.27 1025 10 16 0.00 0.00
3:53 am 03:53 Clear 24 -4.4 21 -6.1 88 88 Calm 30.26 1025 10 16 0.00 0.00
4:53 am 04:53 Clear 25 -3.9 22 -5.6 88 88 WNW 5 7 30.27 1025 10 16 0.00 0.00
5:53 am 05:53 Clear 27 -2.8 22 -5.6 81 81 W 3 6 30.28 1026 10 16 0.00 0.00
7:53 am 07:53 Sunny 26 -3.3 21 -6.1 81 81 WSW 3 6 30.29 1026 10 16 0.00 0.00
8:53 am 08:53 Sunny 32 0 26 -3.3 79 79 W 6 9 30.29 1026 10 16 0.00 0.00
9:53 am 09:53 Sunny 37 2.8 27 -2.8 67 67 WNW 6 9 30.29 1026 10 16 0.00 0.00
10:53 am 10:53 Sunny 44 6.7 28 -2.2 53 53 W 3 6 30.25 1024 10 16 0.00 0.00
11:53 am 11:53 Sunny 52 11.1 28 -2.2 40 40 SW 9 15 30.22 1024 10 16 0.00 0.00
12:53 pm 12:53 Sunny 54 12.2 28 -2.2 37 37 SW 12 19 30.19 1022 10 16 0.00 0.00
1:53 pm 13:53 Sunny 56 13.3 28 -2.2 34 34 SW 13 20 30.15 1021 10 16 0.00 0.00
2:53 pm 14:53 Sunny 56 13.3 28 -2.2 34 34 SW 10 17 30.13 1020 10 16 0.00 0.00
5:53 pm 17:53 Clear 43 6.1 28 -2.2 56 56 Calm 30.15 1021 10 16 0.00 0.00
6:53 pm 18:53 Clear 37 2.8 27 -2.8 67 67 Calm 30.16 1021 10 16 0.00 0.00
7:53 pm 19:53 Clear 39 3.9 27 -2.8 62 62 SE 5 7 30.16 1021 10 16 0.00 0.00
8:53 pm 20:53 Clear 34 1.1 26 -3.3 73 73 Calm 30.16 1021 10 16 0.00 0.00
9:53 pm 21:53 Clear 39 3.9 27 -2.8 62 62 WSW 6 9 30.14 1021 10 16 0.00 0.00
10:53 pm 22:53 Clear 35 1.7 26 -3.3 70 70 WNW 6 9 30.14 1021 10 16 0.00 0.00
11:53 pm 23:53 Clear 32 0 25 -3.9 75 75 NW 6 9 30.12 1020 10 16 0.00 0.00

Powered by AerisWeather